Lid_Strength_Index
4 4 3 3 3 3 3 3 3 2 3 3 3 3 3 4 4 7 10 8 6 2 2 7 8 10 11 13 12 12 17 18 16 15 14 11 12 9 7 8 7 8 7 6 3
3 3 3 3 3 2 2 3 2 2 2 2 3 3 3 3 6 9 5 3 2 2 7 9 11 11 13 14 14 15 17 16 14 13 14 13 12 11 10 10 10 9 6 4 3
3 3 3 2 2 2 2 2 2 2 2 3 3 3 3 4 9 10 4 3 2 2 7 8 11 11 14 15 15 16 16 15 13 12 12 12 12 11 11 12 10 10 8 6 6
3 3 2 2 2 2 2 2 2 2 2 3 3 3 3 6 15 8 -1 2 1 3 8 10 12 14 14 14 14 16 13 13 13 11 11 13 12 12 11 11 8 8 8 7 8
3 3 3 3 2 2 2 2 2 2 3 3 3 3 6 10 10 6 -1 1 3 4 9 12 13 13 14 13 14 15 13 12 11 12 12 12 12 12 12 10 8 8 8 7 6
3 3 3 3 3 2 2 2 3 3 3 3 3 3 7 12 7 4 2 3 4 7 10 12 12 12 12 13 13 12 12 11 11 12 12 12 12 12 10 8 8 7 6 5 5
4 4 3 3 3 3 2 2 3 3 3 3 3 4 8 9 5 5 3 5 6 8 10 10 10 11 11 13 11 11 13 11 11 12 12 12 13 12 8 8 8 7 6 6 4
4 4 4 3 3 3 2 2 3 3 3 3 2 6 11 6 5 6 5 7 7 7 9 9 9 11 12 11 11 13 13 15 12 11 11 12 13 10 8 8 8 7 8 8 7
4 4 4 4 3 3 2 2 2 2 2 2 5 7 11 4 5 4 5 6 7 8 8 7 10 12 11 13 14 14 16 15 13 11 12 12 12 9 8 9 9 9 8 8 8
4 4 4 4 4 3 3 3 3 2 3 3 4 9 7 7 4 3 4 4 7 8 9 9 10 13 14 14 17 16 16 14 14 11 11 12 12 9 9 9 9 9 9 9 8
4 4 4 4 4 4 4 6 6 7 6 9 8 8 6 4 3 5 4 5 6 9 13 12 14 14 12 11 12 12 14 14 12 10 11 12 12 10 10 10 10 9 9 8 8
4 4 4 4 4 4 5 8 7 6 9 6 6 6 5 5 7 6 5 9 10 13 12 13 14 10 10 10 11 12 13 13 11 10 11 12 12 11 10 10 10 9 9 8 8
4 4 4 4 4 6 8 6 4 5 9 7 5 6 6 5 7 6 7 9 11 13 12 13 11 9 11 12 12 12 13 12 12 11 11 12 13 12 10 9 8 8 8 8 8
4 4 4 4 7 8 9 4 4 5 12 9 8 6 5 5 7 4 7 8 9 12 11 12 9 10 11 11 10 13 10 10 11 13 16 12 17 13 12 11 9 8 8 7 7
4 4 4 4 7 9 7 6 5 6 20 8 8 4 5 7 7 7 6 7 10 11 11 11 11 11 11 10 9 11 9 10 11 14 15 14 16 14 11 11 10 9 7 8 7
5 5 4 5 7 6 5 5 6 13 20 11 7 8 8 7 8 8 7 6 7 10 11 11 9 10 9 8 8 8 10 12 13 15 18 15 15 15 13 11 10 9 8 8 8
5 5 5 5 9 6 6 6 13 18 9 11 11 9 9 9 8 8 10 10 12 14 14 11 11 10 8 10 8 10 13 17 18 18 18 14 15 14 11 9 9 10 10 10 9
5 5 5 6 6 5 6 9 18 12 12 8 9 10 11 10 10 9 10 12 10 12 14 15 15 10 8 9 11 12 13 16 20 20 18 14 17 14 10 10 10 10 10 10 10
5 8 9 8 5 5 7 15 15 12 9 10 10 12 12 10 10 10 11 12 11 11 13 14 14 8 8 8 8 11 13 11 15 16 19 16 14 11 11 11 10 11 11 11 11
6 8 9 6 5 6 10 13 11 8 8 8 12 10 13 11 12 11 11 9 10 10 10 12 15 10 9 8 9 11 10 16 15 20 22 17 16 15 13 12 11 12 11 11 11
9 10 7 4 5 8 13 12 9 7 7 10 11 12 11 11 12 13 11 9 8 9 9 11 12 13 11 12 13 12 13 13 14 16 20 21 17 12 12 12 12 12 11 11 11
8 12 5 4 9 9 12 9 8 8 7 8 8 9 11 10 12 12 12 10 7 8 11 11 13 15 13 11 9 11 12 13 17 18 18 19 17 11 12 12 12 12 11 11 11
9 9 5 5 13 12 9 9 8 9 9 9 9 8 9 10 13 11 11 8 8 8 10 10 14 17 15 13 11 13 11 11 13 14 17 19 17 11 11 11 11 11 12 11 10
7 11 8 6 7 9 10 10 10 7 8 8 9 9 10 11 11 12 11 8 8 8 7 8 13 15 17 15 13 15 12 12 13 17 17 16 15 13 11 11 11 12 12 12 11
7 9 7 11 9 9 9 9 11 10 7 8 10 10 10 13 12 13 11 10 8 8 9 9 14 14 13 12 12 12 12 12 14 14 16 15 13 13 12 12 12 12 12 11 11
8 8 6 8 8 9 9 10 11 10 9 10 11 10 9 12 11 13 11 12 12 10 12 9 15 14 15 12 11 13 12 11 12 12 13 12 13 12 11 11 12 12 12 12 11
4 4 6 8 9 10 10 10 10 8 8 8 9 10 11 10 9 9 9 10 10 11 12 12 13 14 17 13 13 16 13 12 11 11 11 15 12 11 12 11 12 12 11 11 11